星链-4342 (STARLINK-4342 )

导读 | 星芒AI

STARLINK-4342 是 SpaceX Starlink 项目中的一颗低轨通信卫星,属于该星座的多个发射批次之一。该卫星旨在为全球用户提供高速互联网服务,支持偏远地区的网络接入。它运行在约 550 公里的轨道高度,采用先进的相控阵天线和激光通信技术,以提高数据传输效率和系统稳定性。作为 Starlink 卫星群的一部分,STARLINK-4342 有助于构建一个低延迟、高带宽的全球宽带网络。

基本信息
目录编号:
53070
目录名称:
STARLINK-4342
国际标识:
2022-077AD
轨道中心:
EARTH
卫星名称:
星链-4342
卫星全名:
星链-4342 (STARLINK-4342 )
卫星状态:
在轨 (已飞行1259 天)
发射日期:
2022-07-11 UTC
国别 :
美国 (US)
星等 :
--
轨道信息
数据来源 国际轨道数据 AOE轨道数据
星历时间 2025-12-21T02:38:08+0800
12小时前
查看轨道信息
2025-12-20T06:00:00+0800
1天前
查看轨道信息
半长轴 6927.654km 6927.674km
偏心率 0.0001678 0.0003071
轨道倾角 97.602° 97.605°
近地点辐角 83.946° 76.614°
升交点赤经 173.523° 172.669°
平近点角 276.196° 305.973°
近地点 548.354km 547.409km
远地点 550.68km 551.665km
周期 95.640分钟 95.640分钟
每日圈数 15.056482 15.056419
详细信息
固有亮度:
5
最大亮度:
2.5
卫星平台:
Starlink v1.5
覆盖范围:
全球
运营商:
太空探索技术公司
运营商所在国:
美国
制造商(研发单位):
太空探索技术公司
制造商所在国:
美国
使用方式:
暂无
卫星简介
星链(Starlink)计划是由太空探索技术公司(SpaceX)提出的一个巨型低轨卫星互联网星座项目,计划在2019年至2024年间在太空搭建由约1.2万颗卫星组成的“星链”网络,其中1584颗将部署在地球上空550千米处的近地轨道,并从2020年开始工作。该卫星仍在工作。
2D轨道图
3D轨道图
轨道高度分析图
轨道倾角分析图
轨道综合分析图
查看轨道综合分析图